Content
SEND FEEDBACK

Daily
Averages
Monthly
Summary
United States of America

WILMINGTON, NORTH CAROLINA


Home > North America > United States > North Carolina
Elevation: 72 feet     Latitude: 34 16N     Longitude: 077 54W

WEATHER
 
SELECT A DAY
Number of Records: 214,467;   Date Range: 1/1/95 - 12/27/14
 
SHARE

PRINT THIS DATA

[ ← Previous Day ]
WEATHER ALMANAC - AUGUST 7, 2014
[ Next Day → ]
[ °C ]   °F
Weather ElementAverageHighLow
Temperature80.4 °F93 °F (2:53 pm)73 °F (1:53 am)
Dewpoint70.9 °F73 °F (7:53 am)66.9 °F (1:53 pm)
Humidity75.1 %96 % (5:53 am)42 % (2:53 pm)
Barometer29.94 in30.00 in (10:53 pm)29.91 in (3:53 am)
Wind Speed4.2 mph12.7 mph (4:53 pm)
Wind Gust21.9 mph (3:17 pm)
Weather ElementAverage
Visibility8.1 mi
Wind DirectionENE (76.7 °)

Weather ElementTotal
Precipitation---
Cooling Degree Days18 (Base 65)
Growing Degree Days33 (Base 50)
Averaged from 24 records on August 7, 2014
WEATHER CONDITIONS BREAKOUT
WIND DIRECTION BREAKOUT
WEATHER BY HOUR - AUGUST 7, 2014
[ °C ]   °F
Local TimeTemperatureDewpointHumidityBarometerVisibilityWind DirectionWind SpeedGust SpeedPrecipitationEventsConditions
1:53 AM73.0 °F71.1 °F93 %29.93 in9.0 miCalmClear
2:53 AM73.9 °F72.0 °F93 %29.92 in9.0 miCalmClear
3:53 AM73.0 °F71.1 °F93 %29.91 in7.0 miCalmClear
4:53 AM73.9 °F72.0 °F93 %29.91 in4.0 miCalmClear
5:53 AM73.0 °F72.0 °F96 %29.91 in5.0 miCalmClear
6:53 AM73.0 °F72.0 °F96 %29.93 in4.0 miCalmClear
7:53 AM78.1 °F73.0 °F84 %29.93 in7.0 miCalmClear
8:53 AM81.0 °F72.0 °F74 %29.95 in8.0 miWest (260°)5.8 mphClear
9:53 AM84.0 °F71.1 °F65 %29.96 inNorth
10:53 AM88.0 °F70.0 °F55 %29.96 in10.0 miSW (230°)3.5 mph
11:53 AM89.1 °F68.0 °F50 %29.96 in10.0 miSW (220°)5.8 mphOvercast
12:53 PM91.9 °F69.1 °F47 %29.94 in10.0 miCalmClear
1:53 PM90.0 °F66.9 °F46 %29.93 in10.0 miSSW (210°)9.2 mphPartly Cloudy
2:53 PM93.0 °F66.9 °F42 %29.91 in10.0 miWSW (240°)8.1 mphPartly Cloudy
3:17 PM84.0 °F70.0 °F63 %29.92 in10.0 miNE (40°)6.9 mph21.9 mphThunderstormMostly Cloudy
3:53 PM82.0 °F72.0 °F71 %29.92 in10.0 miEast (80°)9.2 mphScattered Clouds
4:53 PM84.9 °F71.1 °F63 %29.93 in10.0 miEast (100°)12.7 mphMostly Cloudy
5:53 PM82.0 °F72.0 °F71 %29.93 in8.0 miENE (60°)9.2 mphMostly Cloudy
6:53 PM80.1 °F71.1 °F74 %29.94 in8.0 miEast (80°)3.5 mphOvercast
7:53 PM79.0 °F71.1 °F77 %29.96 in9.0 miSouth (190°)4.6 mphOvercast
8:53 PM77.0 °F73.0 °F88 %29.96 in8.0 miNE (40°)4.6 mphPartly Cloudy
9:53 PM75.9 °F72.0 °F87 %29.99 in7.0 miNNE (30°)3.5 mphClear
10:53 PM75.0 °F72.0 °F90 %30.00 in7.0 miNNE (30°)3.5 mphClear
11:53 PM73.9 °F71.1 °F91 %30.00 in7.0 miNNE (30°)5.8 mphClear
Hourly data recorded from KILM, located miles away from Wilmington, North Carolina







STORIES FROM OUR PARTNERS